Hourly Data Report for February 08, 2021

TORONTO CITY
ONTARIO
Current Station Operator: ECCC - MSC

43°40'00.000" N
79°24'00.000" W
112.50 m
6158355
71508
XTO

Download Data

Hourly Data (February 2021)
Hourly Data Report for February 8, 2021
TIME
LST
Temp Definition
°C
Dew Point Definition
°C
Rel Hum Definition
%
Precip. Amount Definition
mm

Wind Dir Definition
10's deg

Wind Spd Definition
km/h
Visibility Definition
km
Stn Press Definition
kPa
Hmdx Definition


Wind Chill Definition


Weather Definition


00:00 -11.2 -16.7 64 0.0       100.94     LegendNANA
01:00 -11.3 -17.1 62 0.0       101.00     LegendNANA
02:00 -11.1 -16.7 63 0.0       101.05     LegendNANA
03:00 -11.6 -16.8 66 0.0       101.06     LegendNANA
04:00 -11.4 -17.4 61 0.0       101.14     LegendNANA
05:00 -10.9 -17.2 60 0.0       101.18     LegendNANA
06:00 -11.1 -16.7 63 0.0       101.15     LegendNANA
07:00 -10.8 -16.6 62 0.0       101.26     LegendNANA
08:00 -10.5 -16.7 61 0.0       101.31     LegendNANA
09:00 -10.0 -16.4 59 0.0       101.38     LegendNANA
10:00 -8.9 -16.5 54 0.0       101.40     LegendNANA
11:00 -8.1 -17.3 48 0.0       101.42     LegendNANA
12:00 -8.0 -17.8 45 0.0       101.40     LegendNANA
13:00 -6.7 -17.9 41 0.0       101.32     LegendNANA
14:00 -6.2 -17.5 40 0.0       101.25     LegendNANA
15:00 -6.2 -16.0 46 0.0       101.23     LegendNANA
16:00 -6.3 -16.0 46 0.0       101.23     LegendNANA
17:00 -6.3 -16.5 44 0.0       101.25     LegendNANA
18:00 -6.9 -16.1 48 0.0       101.27     LegendNANA
19:00 -7.0 -15.5 51 0.0       101.29     LegendNANA
20:00 -7.1 -15.5 51 0.0       101.27     LegendNANA
21:00 -7.2 -15.3 53 0.0       101.24     LegendNANA
22:00 -7.9 -14.2 60 0.0       101.26     LegendNANA
23:00 -8.3 -11.8 76 0.1       101.25     LegendNANA

Notes on Data Quality.

Legend

  • E = Estimated
  • M = Missing
  • NA = Not Available*
  • [empty] = Indicates an unobserved value
Date modified: